Regional Weather Roundup
Issued by NWS Newport/Morehead, NC

Current Version | Previous Version | Graphics & Text | Print | Product List | Glossary Off
Versions: 1 2 3 4 5 6 7 8 9 10 11 12 13 14 15 16 17 18 19 20 21 22 23 24 25 26 27 28 29 30 31 32 33 34 35 36 37 38 39 40 41 42 43 44 45 46 47 48 49 50

000
ASUS42 KMHX 060525
RWRMHX
WEATHER ROUNDUP FOR EASTERN NORTH CAROLINA
NATIONAL WEATHER SERVICE NEWPORT/MOREHEAD CITY NC
100 AM EDT FRI MAY 06 2016

NOTE: "FAIR" INDICATES FEW OR NO CLOUDS BELOW 12,000 FEET
WITH NO SIGNIFICANT WEATHER AND/OR OBSTRUCTIONS TO VISIBILITY

NCZ015>017-031-032-045>047-102-103-060600-
NORTH COAST

CITY           SKY/WX    TMP DP  RH WIND       PRES   REMARKS
EDENTON        CLOUDY    53  53 100 CALM      29.66F
ELIZABETH CITY CLOUDY    51  48  89 CALM      29.65R
KITTY HAWK     CLOUDY    50  49  96 N5        29.62R
MANTEO         CLOUDY    51  49  95 N8        29.64R

$$

NCZ045>047-081-094-103-104-060600-
CENTRAL COAST

CITY           SKY/WX    TMP DP  RH WIND       PRES   REMARKS
FRISCO         CLOUDY    54  50  86 VRB3      29.65R
SWANQUARTER    NOT AVBL

$$

NCZ095-097-098-100-101-060600-
SOUTHERN COAST

CITY           SKY/WX    TMP DP  RH WIND       PRES   REMARKS
BEAUFORT       PTCLDY    53  52  96 NE3       29.66S
CEDAR ISLAND   NOT AVBL
JACKSONVILLE   CLOUDY    53  49  86 W8        29.67R
PINEY ISLAND   CLOUDY   N/A N/A N/A N5        29.65
WILMINGTON     CLEAR     52  46  80 NW7       29.69F


$$

NCZ011>013-027>030-043-044-078>080-089-090>093-098-060600-
COASTAL PLAIN

CITY           SKY/WX    TMP DP  RH WIND       PRES   REMARKS
AHOSKIE        DRIZZLE   51  50  96 CALM      29.66S
CLINTON        MOCLDY    51  48  88 W6        29.69S
ELIZABETHTOWN  CLEAR     50  45  81 W3        29.70S
GOLDSBORO      NOT AVBL
GREENVILLE     LGT RAIN  52  52 100 CALM      29.69R
HAVELOCK       CLOUDY    54  52  93 SW5       29.67S
KENANSVILLE    CLOUDY    51  47  87 W3        29.69S
KINSTON        CLOUDY    52  51  97 SW7       29.66S
NEW BERN       RAIN      54  52  93 S3        29.67S
RICHLANDS      CLOUDY    52  49  89 SW12      29.68S
ROCKY MOUNT    LGT RAIN  52  51  97 NE7       29.65S FOG
WASHINGTON     CLOUDY    52  49  90 E3        29.65S
WHITEVILLE     NOT AVBL

$$

AMZ130-135-150-152-154-156-158-170-250-252-270-ANZ085-086-088-633-658-670-060600-
MARINE OBSERVATIONS

STATION/POSITION TIME  TEMP    WIND        PRES    WAVE   SWELL
                       AIR SEA DIR/SP/G            HT/PER HT/PER
                 (UTC) (F)     (DEG/KT/KT) (MB)    (FT/S) (FT/S)
CHESAPEAKE LIGHT 0500   50      30/ 24/ 26 1002.3
64 E VA BEACH    0450   50 51  350/ 17/ 21 1001.4    8/ 8   3/ 8
DUCK             0500   52 60   10/ 12/ 15 1002.4
2 E DUCK         0441      59                N/A     6/ 7
OREGON INLET     0500   51 60  340/  7/ 11 1003.1
13E OREGON INLT  0500      55                N/A     7/ 8   7/ 8
HATTERAS CG      0500   56 67  340/  8/ 10 1003.6
DIAMOND BUOY     0450   55 76  350/  8/ 10 1004.0    4/ 8   3/ 8
CAPE LOOKOUT     0500   55     360/  6/  8 1003.9
BEAUFORT LAB     0500   54 67   50/  2/  4 1003.4
30 SE NEW RVR IN 0425      73                N/A     4/ 7
27 SE WRIGHTSVLE 0508   59 72  300/ 14/ 19 1004.8
5 SE WRIGHTSVLE  0508   56 69  310/ 12/ 17 1006.0
225 S CAPE HAT   0450   72 74  250/ 17/ 21 1005.3   10/ 9   5/ 9
41 SE CHARLESTON 0450   64 73  290/ 14/ 17 1006.5    6/ 7   3/ 7

$$




USA.gov is the U.S. government's official web portal to all federal, state and local government web resources and services.